CDT,Max TemperatureF,Mean TemperatureF,Min TemperatureF,Max Dew PointF,MeanDew PointF,Min DewpointF,Max Humidity, Mean Humidity, Min Humidity, Max Sea Level PressureIn, Mean Sea Level PressureIn, Min Sea Level PressureIn, Max VisibilityMiles, Mean VisibilityMiles, Min VisibilityMiles, Max Wind SpeedMPH, Mean Wind SpeedMPH, Max Gust SpeedMPH,PrecipitationIn, CloudCover, Events, WindDirDegrees
2012-10-1,,,,,,,,,,,,,,,,,,,,,,
2012-10-2,73,54,35,34,27,21,70,29,16,29.98,29.86,29.79,10,10,6,18,9,22,0.00,0,,185
2012-10-3,78,64,51,36,30,25,51,29,16,29.85,29.79,29.72,10,10,7,21,11,29,0.00,0,,178
2012-10-4,51,45,39,37,29,25,71,55,43,30.25,30.09,29.75,10,10,9,36,25,45,0.00,7,,300
2012-10-5,46,38,30,25,21,18,70,50,34,30.26,30.23,30.19,10,10,10,28,16,32,0.00,2,,307
2012-10-6,42,34,26,27,22,16,75,60,42,30.34,30.29,30.24,10,10,10,21,15,32,0.00,5,,325
2012-10-7,55,40,24,21,19,18,74,45,23,30.25,30.04,29.83,10,10,10,21,11,26,0.00,0,,229
2012-10-8,68,52,37,37,28,18,58,39,26,29.83,29.71,29.59,10,10,10,30,15,38,0.00,5,,245
2012-10-9,51,43,35,36,27,19,76,52,40,30.05,29.89,29.75,10,10,9,31,12,37,0.00,7,,300
2012-10-10,60,44,28,30,24,19,80,46,25,30.11,30.00,29.80,10,10,10,21,11,28,0.00,3,,247
2012-10-11,57,42,24,30,25,12,70,51,33,30.41,30.14,29.79,10,10,10,26,17,36,0.00,1,,333
2012-10-12,55,37,19,36,16,10,80,44,21,30.42,30.24,29.92,10,10,10,24,9,31,0.00,2,,180
2012-10-13,64,53,41,48,44,36,82,68,52,29.91,29.74,29.64,10,9,5,30,12,33,0.00,4,,208
2012-10-14,57,48,39,36,31,28,81,56,36,29.95,29.86,29.75,10,10,8,25,14,33,0.00,0,,321
2012-10-15,69,51,33,39,34,27,81,52,31,29.95,29.84,29.63,10,10,10,24,9,29,0.00,0,,200
2012-10-16,75,62,50,45,42,37,66,47,31,29.63,29.47,29.32,10,10,9,22,12,30,0.00,0,,252
2012-10-17,62,52,42,46,39,34,76,62,48,29.37,29.27,29.09,10,10,7,36,18,45,0.00,7,,270
2012-10-18,46,42,39,43,38,34,87,81,76,29.46,29.31,29.20,10,8,3,31,22,43,0.47,8,,315
2012-10-19,42,40,39,37,37,36,87,82,76,29.77,29.66,29.46,10,8,2,32,23,43,0.09,8,,328
2012-10-20,57,48,39,45,40,36,93,81,63,29.80,29.74,29.69,10,10,0,16,7,20,0.00,4,,183
2012-10-21,59,50,42,45,42,39,93,72,55,29.93,29.77,29.66,10,9,3,21,12,24,0.00,1,,261
2012-10-22,57,49,41,46,43,37,93,79,67,29.96,29.90,29.81,10,8,0,16,11,22,0.00,8,,27
2012-10-23,62,58,53,57,52,48,94,86,72,29.80,29.72,29.65,10,5,0,15,6,17,0.00,8,,247
2012-10-24,55,47,37,52,40,32,88,78,66,29.90,29.86,29.80,10,10,5,23,13,30,0.00,8,,342
2012-10-25,37,34,32,34,27,25,87,74,65,30.24,30.01,29.83,10,8,1,29,21,34,0.04,7,,323
2012-10-26,37,35,33,25,22,19,70,58,48,30.40,30.34,30.24,10,10,10,22,15,28,0.00,8,,280
2012-10-27,41,32,24,27,22,19,80,64,42,30.35,30.30,30.25,10,10,10,15,10,18,0.00,1,,204
2012-10-28,48,40,32,30,28,25,75,65,46,30.28,30.23,30.17,10,10,10,18,9,22,0.00,5,,161
2012-10-29,53,44,35,30,28,27,75,55,38,30.20,30.16,30.12,10,10,10,22,13,25,0.00,3,,150
2012-10-30,44,37,30,28,27,25,80,65,46,30.17,30.13,30.07,10,10,10,12,7,,0.00,6,,123
2012-10-31,57,42,28,36,29,21,86,62,38,30.09,30.00,29.93,10,10,10,12,3,,0.00,1,,245